Scottsdale, AZ

10:27 AM MST on March 27, 2017 (GMT -0700)
Scottsdale

Weather History for KSDL - February, 2014

Change the Weather History Date:

Thursday, February 6, 2014

  Actual Average Record
Temperature  
Mean Temperature 50 °F -  
Max Temperature 59 °F 64 °F 81 °F (2015)
Min Temperature 42 °F 44 °F 35 °F (2008)
Degree Days  
Heating Degree Days 14    
Moisture  
Dew Point 33 °F    
Average Humidity 51    
Maximum Humidity 73    
Minimum Humidity 35    
Precipitation  
Precipitation 0.00 in - - ()
Sea Level Pressure  
Sea Level Pressure 29.98 in    
Wind  
Wind Speed 1 mph (South)    
Max Wind Speed 6 mph    
Max Gust Speed -    
Visibility 10 miles    
Events      
Averages and records for this station are not official NWS values.
T = Trace of Precipitation, MM = Missing Value Source: NWS Daily Summary

Daily Weather History Graph

Daily Weather History Graph

Search for Another Location

Airport or City:

Trip Planner

Search our weather history database for the weather conditions in past years. The results will help you decide how hot, cold, wet, or windy it might be!

Date:

Astronomy

Feb. 06, 2014 Rise Set
Actual Time 7:20 AM MST 6:03 PM MST
Civil Twilight 6:54 AM MST 6:29 PM MST
Nautical Twilight 6:24 AM MST 6:59 PM MST
Astronomical Twilight 5:55 AM MST 7:28 PM MST
Moon 11:39 AM MST (2/6) 12:39 AM MST (2/6)
Length of Visible Light 11h 35m
Length of Day
10h 43m
Waxing Crescent, 50% of the Moon is Illuminated
Feb 6
Waxing Crescent
Feb 6
First Quarter
Feb 14
Full
Feb 22
Last Quarter
Mar 1
New

Hourly Weather History & Observations

Time (MST) Temp. Windchill Dew Point Humidity Pressure Visibility Wind Dir Wind Speed Gust Speed Precip Events Conditions
12:53 AM 46.0 °F - 34.0 °F 63% 30.01 in 10.0 mi Calm Calm - N/A   Clear
1:53 AM 46.0 °F - 33.1 °F 61% 30.01 in 10.0 mi Calm Calm - N/A   Clear
2:53 AM 44.1 °F - 34.0 °F 68% 30.00 in 10.0 mi Calm Calm - N/A   Clear
3:53 AM 42.1 °F - 34.0 °F 73% 30.00 in 10.0 mi Calm Calm - N/A   Clear
4:53 AM 43.0 °F - 33.1 °F 68% 30.00 in 10.0 mi Calm Calm - N/A   Clear
5:53 AM 44.1 °F - 33.1 °F 65% 30.01 in 10.0 mi Calm Calm - N/A   Clear
6:53 AM 44.1 °F 42.5 °F 33.1 °F 65% 30.01 in 10.0 mi WSW 3.5 mph - N/A   Clear
7:53 AM 43.0 °F - 33.1 °F 68% 30.02 in 10.0 mi Calm Calm - N/A   Clear
8:53 AM 46.0 °F - 34.0 °F 63% 30.04 in 10.0 mi Calm Calm - N/A   Clear
9:53 AM 51.1 °F - 33.1 °F 50% 30.04 in 10.0 mi SSW 3.5 mph - N/A   Clear
10:53 AM 52.0 °F - 34.0 °F 50% 30.06 in 10.0 mi Calm Calm - N/A   Mostly Cloudy
11:53 AM 53.1 °F - 35.1 °F 50% 30.03 in 10.0 mi Calm Calm - N/A   Mostly Cloudy
12:53 PM 55.9 °F - 34.0 °F 44% 29.99 in 10.0 mi South 3.5 mph - N/A   Partly Cloudy
1:53 PM 57.9 °F - 32.0 °F 37% 29.97 in 10.0 mi South 5.8 mph - N/A   Overcast
2:53 PM 57.9 °F - 32.0 °F 37% 29.94 in 10.0 mi South 3.5 mph - N/A   Overcast
3:53 PM 59.0 °F - 32.0 °F 36% 29.94 in 10.0 mi SE 4.6 mph - N/A   Overcast
4:53 PM 59.0 °F - 30.9 °F 35% 29.93 in 10.0 mi SE 3.5 mph - N/A   Overcast
5:53 PM 57.9 °F - 32.0 °F 37% 29.93 in 10.0 mi Calm Calm - N/A   Overcast
6:53 PM 57.9 °F - 32.0 °F 37% 29.93 in 10.0 mi Calm Calm - N/A   Overcast
7:53 PM 57.0 °F - 32.0 °F 39% 29.94 in 10.0 mi Calm Calm - N/A   Overcast
8:53 PM 57.0 °F - 33.1 °F 40% 29.93 in 10.0 mi Calm Calm - N/A   Overcast
9:53 PM 55.9 °F - 34.0 °F 44% 29.93 in 10.0 mi East 4.6 mph - 0.00 in   Overcast
10:53 PM 55.9 °F - 34.0 °F 44% 29.93 in 10.0 mi Calm Calm - N/A   Overcast
11:53 PM 55.0 °F - 35.1 °F 47% 29.93 in 10.0 mi Calm Calm - N/A   Overcast